Home   Weather   Marigot   Past weeks

Past Weather in Marigot, Saint Martin — Yesterday and Last 2 Weeks

Now
86 °F

Scattered showers. Partly sunny.


Feels Like: 95 °F
Forecast: 81 / 88 °F
Wind: 14 mph from East

Location: Juliana Airport - Saint Maarten

Current Time: Sep 30, 2016 at 1:05:38 PM

Latest Report: Sep 30, 2016 at 12:00 PM


Visibility: N/A

Pressure: 29.92 "Hg

Humidity: 70%

Dew Point: 75 °F

Location of MarigotLocation

Past Weather in Marigot — Graph

°F

Marigot Temperature Yesterday

Maximum temperature yesterday: 88 °F (at 11:00 AM)
Minimum temperature yesterday: 82 °F (at 12:00 AM)
Average temperature yesterday: 85 °F

High & Low Weather Summary for the Past Weeks

 TemperatureHumidityPressure
High90 °F (Sep 15, 2:00 PM)100% (Sep 17, 7:00 AM)30.04 "Hg (Sep 17, 7:00 AM)
Low75 °F (Sep 17, 7:00 AM)59% (Sep 15, 2:00 PM)29.83 "Hg (Sep 21, 3:00 AM)
Average84 °F79%29.95 "Hg
* Reported Sep 15 12:00 PM — Sep 30 11:00 AM, Marigot, Weather by CustomWeather, © 2016

Note: Actual official high and low records may vary slightly from our data, if they occured in-between our weather recording intervals... More about our weather records

Advertising

Marigot Weather History for the Previous 24 Hours

Scroll right to see more
 ConditionsComfort  
Time TempWeatherWind HumidityBarometerVisibility
11:00 AM
Fri, Sep 30
86 °FPartly sunny.15 mph66%29.92 "HgN/A
10:00 AM86 °FScattered showers. Partly sunny.15 mph70%29.95 "HgN/A
9:00 AM86 °FScattered clouds.12 mph70%29.92 "HgN/A
8:00 AM86 °FScattered showers. Scattered clouds.8 mph70%29.92 "HgN/A
7:00 AM82 °FPassing clouds.13 mph79%29.92 "HgN/A
6:00 AM82 °FPassing clouds.12 mph84%29.89 "HgN/A
5:00 AM82 °FPassing clouds.12 mph79%29.89 "HgN/A
4:00 AM82 °FPassing clouds.14 mph79%29.89 "HgN/A
3:00 AM82 °FPassing clouds.12 mph79%29.92 "HgN/A
2:00 AM82 °FPassing clouds.12 mph79%29.92 "HgN/A
1:00 AM82 °FPassing clouds.13 mph79%29.92 "HgN/A
12:00 AM82 °FPassing clouds.13 mph79%29.95 "HgN/A
11:00 PM
Thu, Sep 29
84 °FPassing clouds.12 mph74%29.98 "HgN/A
10:00 PM84 °FPassing clouds.12 mph79%29.98 "HgN/A
9:00 PM84 °FPassing clouds.12 mph74%29.98 "HgN/A
8:00 PM84 °FPassing clouds.13 mph79%29.98 "HgN/A
7:00 PM84 °FPassing clouds.10 mph79%29.98 "HgN/A
6:00 PM84 °FPassing clouds.15 mph74%29.98 "HgN/A
5:00 PM86 °FPassing clouds.15 mph75%29.95 "HgN/A
4:00 PM86 °FPassing clouds.15 mph75%29.95 "HgN/A
3:00 PM86 °FPassing clouds.16 mph75%29.95 "HgN/A
2:00 PM88 °FPassing clouds.15 mph70%29.95 "HgN/A
1:00 PM88 °FScattered clouds.18 mph70%29.98 "HgN/A
Weather by CustomWeather, © 2016

See weather overviewHow to use our weather pages